OCEANSAT 2

导读

OCEANSAT-2是印度空间研究组织(ISRO)于2009年9月23日发射的海洋遥感卫星,属于印度海洋观测卫星系列的第二代任务。卫星运行在太阳同步轨道上,搭载了多光谱扫描辐射计、海洋风场散射仪等载荷,可对全球海洋表面温度、叶绿素浓度、海平面高度及海表风场进行持续观测,为海洋环流研究、渔业资源评估、沿海灾害预警提供关键数据支撑,也服务于气候监测与海洋科学研究,至今已在轨稳定运行十余年,是印度海洋遥感体系的核心卫星之一。

Basic Information
目录编号:
35931
目录名称:
OCEANSAT 2
国际标识:
2009-051A
轨道中心:
EARTH
卫星名称:
OCEANSAT 2
卫星全名:
--
卫星状态:
在轨 (已飞行6111 天)
发射日期:
2009-09-23 UTC
国别 :
印度 (IN)
星等 :
--
Orbit Information
数据来源 国际轨道数据 AOE轨道数据
星历时间 2026-06-17T12:47:21+0800
3小时前
查看轨道信息
2026-06-16T14:00:00+0800
1天前
查看轨道信息
半长轴 7273.095km 7273.096km
偏心率 0.0015203 0.0015077
轨道倾角 98.232° 98.232°
近地点辐角 235.915° 238.477°
升交点赤经 155.050° 154.195°
平近点角 124.057° 19.611°
近地点 883.9km 883.993km
远地点 906.016km 905.925km
周期 102.882分钟 102.882分钟
每日圈数 13.996644 13.996642
Detailed Information
使用方式:
暂无
2D Orbit Map
3D Orbit Map
Orbit Altitude Analysis Chart
Orbit Inclination Analysis Chart
Orbit Comprehensive Analysis Chart
View Comprehensive Chart